Tracking 30402 objects as of 12-May-2025
HD Live streaming from Space Station
objects crossing your sky now

GALS 2

Track GALS 2 now!
GALS 2 is classified as:


NORAD ID: 23717
Int'l Code: 1995-063A
Perigee: 35,873.6 km
Apogee: 35,929.3 km
Inclination: 14.4 °
Period: 1,441.6 minutes
Semi major axis: 42272 km
RCS: 8.9125 m2 (large)
Launch date: November 17, 1995
Source: Commonwealth of Independent States (former USSR) (CIS)
Launch site: TYURATAM MISSILE AND SPACE COMPLEX (TTMTR)
Your satellite tracking list
Your tracking list is empty




NASA's NSSDC Master Catalog

Two Line Element Set (TLE):
1 23717U 95063A   25131.77810560  .00000086  00000-0  00000-0 0  9993
2 23717  14.3585   5.5993 0006588 335.0446  11.7043  0.99888723107616
Source of the keplerian elements: AFSPC